LAN123 SCFA-SCEL

Flight info

Callsign LAN123
Flight time 1h 32m
Altitude 35000
Route UKATO3A UKATO UQ803 SIMOK SIMOK7B
Aircraft A321/M-SDE3FGHIRWY/LB1

Departure

Time 2026-04-25 16:15
Airport Andrés Sabella Gálvez International Airport (SCFA)

Arrival

Time 2026-04-25 17:48
Airport Comodoro Arturo Merino Benítez International Airport (SCEL)
Time Latitude Longitude Altitude Speed Heading
2026-04-25 15:50 -23.44920 -70.44172 390 ft 0 kts 93°
2026-04-25 16:01 -23.44919 -70.44191 390 ft 3 kts 93°
2026-04-25 16:01 -23.44917 -70.44213 390 ft 3 kts 93°
2026-04-25 16:01 -23.44916 -70.44233 390 ft 3 kts 103°
2026-04-25 16:02 -23.44910 -70.44251 391 ft 3 kts 139°
2026-04-25 16:02 -23.44895 -70.44259 391 ft 3 kts 180°
2026-04-25 16:02 -23.44875 -70.44257 392 ft 3 kts 190°
2026-04-25 16:02 -23.44863 -70.44255 393 ft 0 kts 186°
2026-04-25 16:04 -23.44870 -70.44255 392 ft 2 kts 186°
2026-04-25 16:05 -23.44897 -70.44258 391 ft 5 kts 186°
2026-04-25 16:05 -23.44939 -70.44264 389 ft 6 kts 187°
2026-04-25 16:05 -23.44987 -70.44318 387 ft 5 kts 271°
2026-04-25 16:06 -23.44981 -70.44350 387 ft 3 kts 290°
2026-04-25 16:06 -23.44964 -70.44368 388 ft 3 kts 330°
2026-04-25 16:06 -23.44929 -70.44372 389 ft 7 kts
2026-04-25 16:06 -23.44868 -70.44365 392 ft 10 kts
2026-04-25 16:07 -23.44785 -70.44355 392 ft 13 kts
2026-04-25 16:07 -23.44719 -70.44347 399 ft 15 kts
2026-04-25 16:07 -23.44604 -70.44333 404 ft 9 kts
2026-04-25 16:07 -23.44539 -70.44325 407 ft 10 kts
2026-04-25 16:08 -23.44465 -70.44316 410 ft 12 kts
2026-04-25 16:08 -23.44372 -70.44304 411 ft 15 kts
2026-04-25 16:08 -23.44276 -70.44292 411 ft 13 kts
2026-04-25 16:08 -23.44176 -70.44280 415 ft 16 kts
2026-04-25 16:09 -23.44062 -70.44266 418 ft 17 kts
2026-04-25 16:09 -23.43963 -70.44254 429 ft 13 kts
2026-04-25 16:09 -23.43868 -70.44242 425 ft 15 kts
2026-04-25 16:09 -23.43768 -70.44230 439 ft 13 kts
2026-04-25 16:10 -23.43685 -70.44220 431 ft 12 kts
2026-04-25 16:10 -23.43603 -70.44210 450 ft 12 kts
2026-04-25 16:10 -23.43531 -70.44201 453 ft 9 kts
2026-04-25 16:10 -23.43467 -70.44194 456 ft 9 kts
2026-04-25 16:11 -23.43421 -70.44188 458 ft 5 kts
2026-04-25 16:11 -23.43381 -70.44191 460 ft 7 kts 341°
2026-04-25 16:11 -23.43351 -70.44210 462 ft 3 kts 324°
2026-04-25 16:11 -23.43338 -70.44220 462 ft 2 kts 323°
2026-04-25 16:12 -23.43320 -70.44235 463 ft 3 kts 322°
2026-04-25 16:12 -23.43316 -70.44239 463 ft 0 kts 322°
2026-04-25 16:12 -23.43315 -70.44240 463 ft 2 kts 322°
2026-04-25 16:13 -23.43286 -70.44266 464 ft 4 kts 315°
2026-04-25 16:13 -23.43277 -70.44301 464 ft 6 kts 263°
2026-04-25 16:13 -23.43299 -70.44342 463 ft 7 kts 227°
2026-04-25 16:13 -23.43346 -70.44372 460 ft 8 kts 197°
2026-04-25 16:14 -23.43363 -70.44375 459 ft 0 kts 187°
2026-04-25 16:14 -23.43364 -70.44375 459 ft 1 kts 187°
2026-04-25 16:14 -23.43421 -70.44383 457 ft 19 kts 187°
2026-04-25 16:14 -23.43803 -70.44429 436 ft 91 kts 186°
2026-04-25 16:15 -23.44638 -70.44530 401 ft 148 kts 186°
2026-04-25 16:15 -23.45764 -70.44661 705 ft 165 kts 186°
2026-04-25 16:15 -23.46905 -70.44775 1380 ft 166 kts 185°
2026-04-25 16:15 -23.48056 -70.44681 1884 ft 168 kts 171°
2026-04-25 16:16 -23.49224 -70.44425 2280 ft 174 kts 168°
2026-04-25 16:16 -23.50433 -70.44142 2631 ft 181 kts 169°
2026-04-25 16:16 -23.51692 -70.43874 2951 ft 189 kts 169°
2026-04-25 16:16 -23.53034 -70.43608 3214 ft 202 kts 169°
2026-04-25 16:17 -23.54454 -70.43334 3516 ft 212 kts 170°
2026-04-25 16:17 -23.55933 -70.43056 3828 ft 220 kts 170°
2026-04-25 16:17 -23.57462 -70.42768 4153 ft 227 kts 170°
2026-04-25 16:17 -23.59057 -70.42461 4449 ft 239 kts 169°
2026-04-25 16:18 -23.60774 -70.42125 4648 ft 261 kts 169°
2026-04-25 16:18 -23.61382 -70.42005 4757 ft 267 kts 169°
2026-04-25 16:18 -23.64486 -70.41390 5645 ft 276 kts 169°
2026-04-25 16:18 -23.66387 -70.41024 6242 ft 279 kts 170°
2026-04-25 16:19 -23.68315 -70.40656 6812 ft 282 kts 170°
2026-04-25 16:19 -23.70256 -70.40283 7379 ft 284 kts 169°
2026-04-25 16:19 -23.72209 -70.39906 7963 ft 286 kts 169°
2026-04-25 16:20 -23.76159 -70.39146 9124 ft 290 kts 169°
2026-04-25 16:20 -23.78153 -70.38762 9692 ft 292 kts 169°
2026-04-25 16:20 -23.82245 -70.38354 10628 ft 300 kts 178°
2026-04-25 16:21 -23.84383 -70.38288 11050 ft 307 kts 179°
2026-04-25 16:21 -23.86514 -70.38231 11444 ft 314 kts 179°
2026-04-25 16:21 -23.88757 -70.38172 11808 ft 323 kts 179°
2026-04-25 16:21 -23.91046 -70.38106 12045 ft 336 kts 179°
2026-04-25 16:22 -23.93420 -70.38027 12296 ft 347 kts 179°
2026-04-25 16:22 -23.95874 -70.37951 12591 ft 357 kts 179°
2026-04-25 16:22 -23.98391 -70.37870 12892 ft 366 kts 179°
2026-04-25 16:22 -24.00966 -70.37776 13203 ft 375 kts 179°
2026-04-25 16:23 -24.03597 -70.37685 13578 ft 381 kts 179°
2026-04-25 16:23 -24.06258 -70.37594 14008 ft 384 kts 179°
2026-04-25 16:23 -24.08935 -70.37502 14443 ft 387 kts 179°
2026-04-25 16:23 -24.11637 -70.37409 14855 ft 390 kts 180°
2026-04-25 16:24 -24.14355 -70.37315 15266 ft 392 kts 180°
2026-04-25 16:24 -24.17096 -70.37222 15663 ft 395 kts 180°
2026-04-25 16:24 -24.19849 -70.37132 16057 ft 397 kts 180°
2026-04-25 16:24 -24.22624 -70.37041 16460 ft 400 kts 180°
2026-04-25 16:25 -24.25414 -70.36947 16859 ft 402 kts 180°
2026-04-25 16:25 -24.26363 -70.36915 16993 ft 403 kts 180°
2026-04-25 16:25 -24.31049 -70.36756 17653 ft 408 kts 180°
2026-04-25 16:25 -24.33892 -70.36662 18038 ft 410 kts 180°
2026-04-25 16:26 -24.36755 -70.36566 18420 ft 413 kts 181°
2026-04-25 16:26 -24.39635 -70.36470 18755 ft 415 kts 181°
2026-04-25 16:26 -24.42533 -70.36376 19092 ft 417 kts 181°
2026-04-25 16:26 -24.45442 -70.36280 19423 ft 420 kts 181°
2026-04-25 16:27 -24.48369 -70.36182 19758 ft 422 kts 181°
2026-04-25 16:27 -24.51315 -70.36083 20082 ft 424 kts 181°
2026-04-25 16:27 -24.54272 -70.35983 20390 ft 426 kts 182°
2026-04-25 16:27 -24.57249 -70.35881 20702 ft 429 kts 182°
2026-04-25 16:28 -24.60236 -70.35782 21015 ft 431 kts 182°
2026-04-25 16:28 -24.62263 -70.35715 21222 ft 432 kts 182°
2026-04-25 16:28 -24.65270 -70.35613 21498 ft 434 kts 182°
2026-04-25 16:28 -24.68296 -70.35510 21778 ft 437 kts 182°
2026-04-25 16:29 -24.71339 -70.35408 22076 ft 439 kts 183°
2026-04-25 16:29 -24.74402 -70.35306 22385 ft 441 kts 183°
2026-04-25 16:29 -24.77483 -70.35204 22665 ft 443 kts 183°
2026-04-25 16:29 -24.80569 -70.35103 22934 ft 446 kts 183°
2026-04-25 16:30 -24.83680 -70.35001 23193 ft 448 kts 183°
2026-04-25 16:30 -24.86809 -70.34897 23463 ft 450 kts 184°
2026-04-25 16:30 -24.89951 -70.34789 23702 ft 453 kts 184°
2026-04-25 16:30 -24.93107 -70.34681 23935 ft 455 kts 184°
2026-04-25 16:31 -24.96271 -70.34577 24176 ft 456 kts 184°
2026-04-25 16:31 -24.99455 -70.34475 24424 ft 458 kts 184°
2026-04-25 16:31 -25.02646 -70.34371 24633 ft 460 kts 184°
2026-04-25 16:31 -25.05849 -70.34263 24862 ft 461 kts 184°
2026-04-25 16:32 -25.09060 -70.34153 25101 ft 463 kts 184°
2026-04-25 16:32 -25.12287 -70.34042 25362 ft 464 kts 184°
2026-04-25 16:32 -25.15515 -70.33934 25597 ft 465 kts 184°
2026-04-25 16:32 -25.18755 -70.33825 25831 ft 467 kts 184°
2026-04-25 16:33 -25.22009 -70.33715 26055 ft 468 kts 184°
2026-04-25 16:33 -25.25269 -70.33603 26289 ft 469 kts 184°
2026-04-25 16:33 -25.28540 -70.33492 26517 ft 471 kts 185°
2026-04-25 16:33 -25.31859 -70.33382 26762 ft 472 kts 185°
2026-04-25 16:34 -25.35153 -70.33270 26990 ft 474 kts 185°
2026-04-25 16:34 -25.38451 -70.33157 27238 ft 475 kts 185°
2026-04-25 16:34 -25.41758 -70.33049 27468 ft 476 kts 185°
2026-04-25 16:34 -25.45073 -70.32939 27709 ft 477 kts 185°
2026-04-25 16:35 -25.48392 -70.32828 27967 ft 478 kts 185°
2026-04-25 16:35 -25.51728 -70.32718 28215 ft 480 kts 185°
2026-04-25 16:35 -25.55062 -70.32603 28511 ft 479 kts 185°
2026-04-25 16:35 -25.58385 -70.32487 28870 ft 478 kts 185°
2026-04-25 16:36 -25.61705 -70.32367 29219 ft 476 kts 185°
2026-04-25 16:36 -25.62779 -70.32328 29329 ft 476 kts 186°
2026-04-25 16:36 -25.68311 -70.32135 29893 ft 474 kts 186°
2026-04-25 16:36 -25.71601 -70.32026 30214 ft 473 kts 186°
2026-04-25 16:37 -25.74889 -70.31917 30473 ft 472 kts 186°
2026-04-25 16:37 -25.78168 -70.31807 30716 ft 472 kts 186°
2026-04-25 16:37 -25.81451 -70.31696 30952 ft 472 kts 186°
2026-04-25 16:37 -25.84733 -70.31585 31196 ft 472 kts 187°
2026-04-25 16:38 -25.88013 -70.31476 31450 ft 472 kts 187°
2026-04-25 16:38 -25.91298 -70.31367 31688 ft 472 kts 187°
2026-04-25 16:38 -25.94577 -70.31259 31906 ft 472 kts 187°
2026-04-25 16:38 -25.97866 -70.31147 32149 ft 473 kts 187°
2026-04-25 16:39 -26.01150 -70.31035 32393 ft 473 kts 187°
2026-04-25 16:39 -26.04440 -70.30919 32627 ft 473 kts 187°
2026-04-25 16:39 -26.07712 -70.30917 32848 ft 466 kts 193°
2026-04-25 16:39 -26.10932 -70.31203 33101 ft 464 kts 194°
2026-04-25 16:40 -26.14153 -70.31499 33334 ft 464 kts 194°
2026-04-25 16:40 -26.17371 -70.31794 33573 ft 464 kts 194°
2026-04-25 16:40 -26.20586 -70.32090 33824 ft 464 kts 194°
2026-04-25 16:40 -26.23798 -70.32388 34076 ft 463 kts 194°
2026-04-25 16:41 -26.27012 -70.32686 34281 ft 463 kts 194°
2026-04-25 16:41 -26.29182 -70.32887 34423 ft 463 kts 194°
2026-04-25 16:41 -26.36683 -70.33578 34916 ft 463 kts 195°
2026-04-25 16:42 -26.39897 -70.33876 35021 ft 463 kts 195°
2026-04-25 16:42 -26.43101 -70.34171 35054 ft 462 kts 195°
2026-04-25 16:42 -26.49505 -70.34750 35050 ft 462 kts 195°
2026-04-25 16:43 -26.55899 -70.35343 35052 ft 461 kts 195°
2026-04-25 16:43 -26.62289 -70.35935 35043 ft 461 kts 195°
2026-04-25 16:44 -26.68681 -70.36525 35060 ft 460 kts 195°
2026-04-25 16:44 -26.75038 -70.37108 35082 ft 457 kts 195°
2026-04-25 16:45 -26.81359 -70.37694 35069 ft 454 kts 195°
2026-04-25 16:45 -26.87653 -70.38281 35072 ft 453 kts 195°
2026-04-25 16:46 -26.93927 -70.38867 35077 ft 452 kts 195°
2026-04-25 16:46 -26.98116 -70.39256 35082 ft 451 kts 195°
2026-04-25 16:47 -27.06444 -70.40028 35081 ft 451 kts 195°
2026-04-25 16:47 -27.12694 -70.40609 35082 ft 450 kts 195°
2026-04-25 16:48 -27.18936 -70.41192 35083 ft 450 kts 196°
2026-04-25 16:48 -27.25169 -70.41777 35085 ft 450 kts 196°
2026-04-25 16:49 -27.31441 -70.42373 35082 ft 450 kts 196°
2026-04-25 16:49 -27.37677 -70.42959 35083 ft 450 kts 196°
2026-04-25 16:50 -27.43826 -70.43529 35090 ft 450 kts 196°
2026-04-25 16:50 -27.50059 -70.44113 35092 ft 449 kts 196°
2026-04-25 16:51 -27.56281 -70.44699 35088 ft 449 kts 196°
2026-04-25 16:51 -27.60404 -70.45086 35094 ft 449 kts 197°
2026-04-25 16:52 -27.68727 -70.45868 35085 ft 448 kts 197°
2026-04-25 16:52 -27.74938 -70.46457 35088 ft 448 kts 197°
2026-04-25 16:53 -27.84247 -70.47345 35095 ft 447 kts 197°
2026-04-25 16:54 -27.90443 -70.47931 35097 ft 446 kts 197°
2026-04-25 16:54 -27.96630 -70.48515 35099 ft 446 kts 197°
2026-04-25 16:55 -28.02803 -70.49099 35106 ft 445 kts 197°
2026-04-25 16:55 -28.08967 -70.49693 35099 ft 444 kts 197°
2026-04-25 16:56 -28.15123 -70.50275 35097 ft 444 kts 197°
2026-04-25 16:56 -28.21272 -70.50859 35097 ft 443 kts 198°
2026-04-25 16:57 -28.27459 -70.51448 35096 ft 443 kts 198°
2026-04-25 16:57 -28.33599 -70.52033 35096 ft 443 kts 198°
2026-04-25 16:58 -28.39727 -70.52625 35095 ft 442 kts 198°
2026-04-25 16:58 -28.45851 -70.53213 35095 ft 441 kts 198°
2026-04-25 16:59 -28.51977 -70.53796 35093 ft 442 kts 198°
2026-04-25 16:59 -28.58094 -70.54370 35088 ft 441 kts 198°
2026-04-25 17:00 -28.64216 -70.54939 35088 ft 441 kts 198°
2026-04-25 17:00 -28.70327 -70.55505 35086 ft 440 kts 198°
2026-04-25 17:01 -28.75385 -70.55983 35083 ft 437 kts 198°
2026-04-25 17:01 -28.81461 -70.56555 35084 ft 439 kts 198°
2026-04-25 17:02 -28.87541 -70.57125 35074 ft 439 kts 198°
2026-04-25 17:02 -28.93639 -70.57702 35092 ft 439 kts 199°
2026-04-25 17:03 -28.99726 -70.58277 35092 ft 439 kts 198°
2026-04-25 17:03 -29.05802 -70.58869 35104 ft 438 kts 199°
2026-04-25 17:04 -29.11920 -70.59468 35116 ft 438 kts 199°
2026-04-25 17:04 -29.17981 -70.60056 35117 ft 437 kts 199°
2026-04-25 17:05 -29.24036 -70.60638 35124 ft 436 kts 199°
2026-04-25 17:05 -29.33075 -70.61517 35134 ft 434 kts 199°
2026-04-25 17:06 -29.39083 -70.62107 35131 ft 432 kts 199°
2026-04-25 17:06 -29.45071 -70.62691 35136 ft 433 kts 199°
2026-04-25 17:07 -29.51073 -70.63267 35131 ft 432 kts 199°
2026-04-25 17:07 -29.57066 -70.63857 35100 ft 434 kts 201°
2026-04-25 17:08 -29.63098 -70.64462 35088 ft 435 kts 201°
2026-04-25 17:08 -29.69144 -70.65055 35087 ft 437 kts 200°
2026-04-25 17:09 -29.75206 -70.65643 35095 ft 438 kts 201°
2026-04-25 17:09 -29.81273 -70.66230 35099 ft 437 kts 201°
2026-04-25 17:10 -29.87334 -70.66820 35103 ft 436 kts 201°
2026-04-25 17:10 -29.93377 -70.67421 35098 ft 435 kts 201°
2026-04-25 17:11 -29.99456 -70.68023 35096 ft 436 kts 201°
2026-04-25 17:11 -30.05486 -70.68616 35087 ft 435 kts 200°
2026-04-25 17:12 -30.11524 -70.69214 35096 ft 436 kts 201°
2026-04-25 17:12 -30.17564 -70.69811 35098 ft 435 kts 200°
2026-04-25 17:13 -30.22583 -70.70296 35092 ft 436 kts 200°
2026-04-25 17:13 -30.29648 -70.70991 35093 ft 436 kts 200°
2026-04-25 17:14 -30.35700 -70.71595 35100 ft 437 kts 200°
2026-04-25 17:14 -30.41754 -70.72202 35105 ft 436 kts 200°
2026-04-25 17:15 -30.47803 -70.72808 35105 ft 437 kts 200°
2026-04-25 17:15 -30.53857 -70.73411 35099 ft 436 kts 199°
2026-04-25 17:16 -30.59910 -70.74014 35101 ft 436 kts 199°
2026-04-25 17:16 -30.65977 -70.74603 35101 ft 438 kts 199°
2026-04-25 17:17 -30.72045 -70.75182 35093 ft 438 kts 199°
2026-04-25 17:17 -30.78121 -70.75765 35101 ft 438 kts 199°
2026-04-25 17:18 -30.84187 -70.76353 35103 ft 437 kts 198°
2026-04-25 17:18 -30.90245 -70.76945 35106 ft 437 kts 198°
2026-04-25 17:19 -30.96339 -70.77542 35103 ft 436 kts 198°
2026-04-25 17:19 -31.02375 -70.78127 35099 ft 433 kts 198°
2026-04-25 17:20 -31.08387 -70.78718 35111 ft 436 kts 198°
2026-04-25 17:20 -31.14429 -70.79321 35119 ft 436 kts 197°
2026-04-25 17:21 -31.20481 -70.79908 35122 ft 436 kts 197°
2026-04-25 17:21 -31.26518 -70.80492 35127 ft 435 kts 197°
2026-04-25 17:22 -31.31529 -70.80990 35031 ft 435 kts 197°
2026-04-25 17:22 -31.35566 -70.81393 34514 ft 435 kts 196°
2026-04-25 17:22 -31.38587 -70.81692 34128 ft 436 kts 195°
2026-04-25 17:23 -31.41606 -70.81990 33685 ft 436 kts 195°
2026-04-25 17:23 -31.44632 -70.82288 33231 ft 436 kts 195°
2026-04-25 17:23 -31.47657 -70.82585 32786 ft 437 kts 195°
2026-04-25 17:23 -31.50703 -70.82890 32353 ft 441 kts 194°
2026-04-25 17:24 -31.53748 -70.83192 31937 ft 438 kts 194°
2026-04-25 17:24 -31.56771 -70.83483 31506 ft 433 kts 194°
2026-04-25 17:24 -31.59757 -70.83772 31086 ft 427 kts 194°
2026-04-25 17:24 -31.62708 -70.84061 30677 ft 424 kts 194°
2026-04-25 17:25 -31.65646 -70.84354 30280 ft 422 kts 194°
2026-04-25 17:25 -31.68564 -70.84641 29827 ft 419 kts 193°
2026-04-25 17:25 -31.71460 -70.84930 29355 ft 416 kts 194°
2026-04-25 17:25 -31.74339 -70.85214 28899 ft 415 kts 192°
2026-04-25 17:26 -31.77243 -70.85234 28446 ft 419 kts 187°
2026-04-25 17:26 -31.80147 -70.85128 27995 ft 416 kts 186°
2026-04-25 17:26 -31.83028 -70.85024 27561 ft 413 kts 187°
2026-04-25 17:26 -31.85899 -70.84920 27127 ft 411 kts 186°
2026-04-25 17:27 -31.88747 -70.84816 26703 ft 409 kts 186°
2026-04-25 17:27 -31.91618 -70.84714 26278 ft 407 kts 186°
2026-04-25 17:27 -31.94438 -70.84614 25875 ft 404 kts 186°
2026-04-25 17:27 -31.95350 -70.84581 25743 ft 403 kts 186°
2026-04-25 17:28 -32.00025 -70.84413 25070 ft 399 kts 186°
2026-04-25 17:28 -32.02791 -70.84313 24675 ft 397 kts 186°
2026-04-25 17:28 -32.05548 -70.84218 24281 ft 395 kts 186°
2026-04-25 17:28 -32.08285 -70.84122 23904 ft 392 kts 185°
2026-04-25 17:29 -32.11005 -70.84022 23490 ft 390 kts 185°
2026-04-25 17:29 -32.13706 -70.83922 23026 ft 387 kts 185°
2026-04-25 17:29 -32.16383 -70.83825 22582 ft 384 kts 185°
2026-04-25 17:29 -32.19044 -70.83729 22140 ft 380 kts 185°
2026-04-25 17:30 -32.21672 -70.83635 21731 ft 376 kts 185°
2026-04-25 17:30 -32.24267 -70.83543 21299 ft 370 kts 184°
2026-04-25 17:30 -32.26822 -70.83455 20890 ft 365 kts 184°
2026-04-25 17:30 -32.29331 -70.83368 20499 ft 356 kts 183°
2026-04-25 17:31 -32.31773 -70.83281 20114 ft 347 kts 183°
2026-04-25 17:31 -32.34157 -70.83197 19732 ft 339 kts 182°
2026-04-25 17:31 -32.36492 -70.83114 19361 ft 333 kts 182°
2026-04-25 17:31 -32.38786 -70.83030 18981 ft 327 kts 181°
2026-04-25 17:32 -32.41040 -70.82950 18611 ft 321 kts 181°
2026-04-25 17:32 -32.43251 -70.82869 18219 ft 315 kts 181°
2026-04-25 17:32 -32.45422 -70.82791 17797 ft 310 kts 180°
2026-04-25 17:32 -32.47560 -70.82714 17374 ft 305 kts 180°
2026-04-25 17:33 -32.49665 -70.82639 16961 ft 302 kts 180°
2026-04-25 17:33 -32.51753 -70.82563 16560 ft 299 kts 180°
2026-04-25 17:33 -32.53815 -70.82487 16170 ft 295 kts 180°
2026-04-25 17:33 -32.55857 -70.82414 15791 ft 291 kts 179°
2026-04-25 17:34 -32.57861 -70.82342 15427 ft 287 kts 179°
2026-04-25 17:34 -32.59206 -70.82293 15177 ft 285 kts 179°
2026-04-25 17:34 -32.61186 -70.82224 14831 ft 284 kts 179°
2026-04-25 17:34 -32.63157 -70.82156 14507 ft 283 kts 179°
2026-04-25 17:35 -32.65125 -70.82088 14188 ft 283 kts 179°
2026-04-25 17:35 -32.67091 -70.82017 13883 ft 282 kts 179°
2026-04-25 17:35 -32.69053 -70.81948 13539 ft 281 kts 179°
2026-04-25 17:35 -32.70998 -70.81877 13205 ft 278 kts 178°
2026-04-25 17:36 -32.72914 -70.81807 12887 ft 274 kts 178°
2026-04-25 17:36 -32.74808 -70.81738 12574 ft 271 kts 178°
2026-04-25 17:36 -32.76687 -70.81668 12267 ft 269 kts 178°
2026-04-25 17:36 -32.78554 -70.81599 11970 ft 268 kts 178°
2026-04-25 17:37 -32.80415 -70.81530 11673 ft 267 kts 179°
2026-04-25 17:37 -32.82263 -70.81462 11380 ft 265 kts 178°
2026-04-25 17:37 -32.84102 -70.81395 11075 ft 264 kts 178°
2026-04-25 17:37 -32.85929 -70.81327 10795 ft 262 kts 178°
2026-04-25 17:38 -32.87745 -70.81261 10514 ft 260 kts 178°
2026-04-25 17:38 -32.88970 -70.81216 10331 ft 260 kts 178°
2026-04-25 17:38 -32.91353 -70.81130 9957 ft 257 kts 179°
2026-04-25 17:38 -32.93101 -70.81266 9681 ft 248 kts 186°
2026-04-25 17:39 -32.94803 -70.81510 9365 ft 245 kts 187°
2026-04-25 17:39 -32.96485 -70.81767 9062 ft 242 kts 187°
2026-04-25 17:39 -32.98165 -70.82029 8768 ft 235 kts 187°
2026-04-25 17:39 -32.99716 -70.82272 8491 ft 221 kts 187°
2026-04-25 17:40 -33.01223 -70.82345 8213 ft 209 kts 177°
2026-04-25 17:40 -33.02642 -70.82265 7958 ft 201 kts 178°
2026-04-25 17:40 -33.04022 -70.82192 7707 ft 197 kts 178°
2026-04-25 17:40 -33.05379 -70.82095 7574 ft 195 kts 177°
2026-04-25 17:41 -33.06729 -70.82005 7370 ft 194 kts 178°
2026-04-25 17:41 -33.08078 -70.81929 7139 ft 194 kts 178°
2026-04-25 17:41 -33.09421 -70.81856 6906 ft 193 kts 178°
2026-04-25 17:41 -33.10762 -70.81784 6664 ft 192 kts 178°
2026-04-25 17:42 -33.12096 -70.81713 6413 ft 192 kts 178°
2026-04-25 17:42 -33.13417 -70.81643 6157 ft 188 kts 178°
2026-04-25 17:42 -33.14712 -70.81574 5911 ft 184 kts 178°
2026-04-25 17:42 -33.15983 -70.81506 5671 ft 182 kts 178°
2026-04-25 17:43 -33.17242 -70.81439 5427 ft 181 kts 178°
2026-04-25 17:43 -33.18495 -70.81372 5205 ft 178 kts 178°
2026-04-25 17:43 -33.19729 -70.81306 4970 ft 178 kts 178°
2026-04-25 17:43 -33.20955 -70.81241 4741 ft 176 kts 178°
2026-04-25 17:44 -33.22153 -70.81177 4502 ft 168 kts 178°
2026-04-25 17:44 -33.23311 -70.81114 4288 ft 166 kts 178°
2026-04-25 17:44 -33.24461 -70.81053 4070 ft 166 kts 178°
2026-04-25 17:44 -33.25599 -70.80992 3853 ft 162 kts 178°
2026-04-25 17:45 -33.26686 -70.80934 3652 ft 153 kts 178°
2026-04-25 17:45 -33.27400 -70.80896 3514 ft 151 kts 178°
2026-04-25 17:45 -33.28780 -70.80822 3236 ft 149 kts 179°
2026-04-25 17:45 -33.29813 -70.80767 3052 ft 148 kts 178°
2026-04-25 17:46 -33.30845 -70.80712 2840 ft 149 kts 178°
2026-04-25 17:46 -33.31882 -70.80656 2638 ft 150 kts 178°
2026-04-25 17:46 -33.32927 -70.80599 2405 ft 151 kts 177°
2026-04-25 17:46 -33.33975 -70.80543 2205 ft 151 kts 177°
2026-04-25 17:47 -33.35019 -70.80489 2011 ft 149 kts 177°
2026-04-25 17:47 -33.36050 -70.80436 1819 ft 147 kts 176°
2026-04-25 17:47 -33.37078 -70.80381 1623 ft 145 kts 176°
2026-04-25 17:47 -33.38030 -70.80326 1558 ft 123 kts 178°
2026-04-25 17:48 -33.39006 -70.80276 1560 ft 36 kts 177°
2026-04-25 17:48 -33.39239 -70.80246 1559 ft 32 kts 163°
2026-04-25 17:48 -33.39375 -70.80168 1559 ft 15 kts 147°